• în România
  • Lista ţărilor
  • Pe 7 zile
  • Temperatura apei
  • Hartă satelitară
  • Meteo pe hartă
  • Widget-uri
  • user-avatar
    Intrare

    Meteo pe oră la Bucureşti

    Astăzi, 23 Mai, Marţi

    Timp Temperatura Precipitaţii Vânt Presiune Umiditate
    00:00 +14°C° 0 mm 3 m/s 755 mmHg 83%
    01:00 +14°C° 0 mm 3 m/s 755 mmHg 84%
    02:00 +15°C° 0 mm 2 m/s 755 mmHg 87%
    03:00 +14°C° 0 mm 2 m/s 755 mmHg 87%
    04:00 +14°C° 0 mm 2 m/s 755 mmHg 87%
    05:00 +13°C° 0 mm 2 m/s 755 mmHg 88%
    06:00 +15°C° 0 mm 2 m/s 756 mmHg 81%
    07:00 +16°C° 0 mm 2 m/s 756 mmHg 73%
    08:00 +18°C° 0 mm 2 m/s 756 mmHg 64%
    09:00 +20°C° 0 mm 2 m/s 756 mmHg 57%
    10:00 +21°C° 0 mm 2 m/s 756 mmHg 50%
    11:00 +22°C° 0 mm 3 m/s 757 mmHg 43%
    12:00 +24°C° 0 mm 3 m/s 756 mmHg 41%
    13:00 +24°C° 0 mm 3 m/s 756 mmHg 39%
    14:00 +25°C° 0 mm 2 m/s 756 mmHg 38%
    15:00 +25°C° 0 mm 2 m/s 756 mmHg 39%
    16:00 +24°C° 0 mm 2 m/s 756 mmHg 40%
    17:00 +24°C° 0 mm 2 m/s 755 mmHg 41%
    18:00 +21°C° 0 mm 2 m/s 755 mmHg 47%
    19:00 +19°C° 0 mm 2 m/s 756 mmHg 54%
    20:00 +16°C° 0 mm 2 m/s 756 mmHg 61%
    21:00 +16°C° 0 mm 2 m/s 756 mmHg 64%
    22:00 +15°C° 0 mm 2 m/s 756 mmHg 67%
    23:00 +15°C° 0 mm 2 m/s 756 mmHg 70%

    Mâine, 24 Mai, Miercuri

    Timp Temperatura Precipitaţii Vânt Presiune Umiditate
    00:00 +14°C° 0 mm 2 m/s 756 mmHg 74%
    01:00 +14°C° 0 mm 2 m/s 756 mmHg 78%
    02:00 +13°C° 0 mm 2 m/s 756 mmHg 81%
    03:00 +13°C° 0 mm 1 m/s 756 mmHg 82%
    04:00 +12°C° 0 mm 1 m/s 756 mmHg 83%
    05:00 +12°C° 0 mm 1 m/s 755 mmHg 84%
    06:00 +14°C° 0 mm 1 m/s 755 mmHg 76%
    07:00 +18°C° 0 mm 1 m/s 755 mmHg 68%
    08:00 +20°C° 0 mm 1 m/s 755 mmHg 60%
    09:00 +20°C° 0 mm 2 m/s 755 mmHg 56%
    10:00 +23°C° 0 mm 2 m/s 755 mmHg 51%
    11:00 +24°C° 0 mm 3 m/s 755 mmHg 46%
    12:00 +25°C° 0 mm 3 m/s 754 mmHg 44%
    13:00 +25°C° 0 mm 3 m/s 754 mmHg 43%
    14:00 +26°C° 0 mm 3 m/s 754 mmHg 41%
    15:00 +26°C° 0 mm 3 m/s 753 mmHg 42%
    16:00 +26°C° 0 mm 3 m/s 753 mmHg 43%
    17:00 +25°C° 0 mm 3 m/s 752 mmHg 44%
    18:00 +22°C° 0 mm 3 m/s 752 mmHg 52%
    19:00 +20°C° 0 mm 3 m/s 752 mmHg 60%
    20:00 +18°C° 0 mm 3 m/s 752 mmHg 68%
    21:00 +17°C° 0 mm 3 m/s 752 mmHg 70%
    22:00 +17°C° 0 mm 3 m/s 753 mmHg 73%
    23:00 +16°C° 0 mm 3 m/s 753 mmHg 76%

    Poimâine, 25 Mai, Joi

    Timp Temperatura Precipitaţii Vânt Presiune Umiditate
    00:00 +14°C° 0,1 mm 3 m/s 752 mmHg 77%
    01:00 +14°C° 0,1 mm 3 m/s 752 mmHg 79%
    02:00 +14°C° 0,1 mm 3 m/s 752 mmHg 81%
    03:00 +14°C° 0,1 mm 3 m/s 752 mmHg 84%
    04:00 +13°C° 0,1 mm 3 m/s 752 mmHg 86%
    05:00 +13°C° 0,1 mm 3 m/s 751 mmHg 89%
    06:00 +14°C° 0,1 mm 3 m/s 751 mmHg 85%
    07:00 +15°C° 0,1 mm 4 m/s 751 mmHg 81%
    08:00 +17°C° 0,1 mm 4 m/s 751 mmHg 78%
    09:00 +18°C° 0 mm 4 m/s 751 mmHg 73%
    10:00 +19°C° 0 mm 5 m/s 751 mmHg 69%
    11:00 +20°C° 0 mm 5 m/s 751 mmHg 64%
    12:00 +20°C° 0 mm 5 m/s 751 mmHg 61%
    13:00 +21°C° 0 mm 5 m/s 751 mmHg 58%
    14:00 +22°C° 0 mm 5 m/s 751 mmHg 55%
    15:00 +22°C° 0 mm 5 m/s 750 mmHg 55%
    16:00 +21°C° 0 mm 4 m/s 750 mmHg 56%
    17:00 +21°C° 0 mm 4 m/s 750 mmHg 56%
    18:00 +20°C° 0 mm 4 m/s 750 mmHg 60%
    19:00 +19°C° 0 mm 4 m/s 750 mmHg 64%
    20:00 +17°C° 0 mm 4 m/s 750 mmHg 68%
    21:00 +17°C° 0 mm 4 m/s 751 mmHg 70%
    22:00 +15°C° 0 mm 4 m/s 751 mmHg 72%
    23:00 +15°C° 0 mm 4 m/s 751 mmHg 75%

    26 Mai, Vineri

    Timp Temperatura Precipitaţii Vânt Presiune Umiditate
    00:00 +14°C° 0 mm 4 m/s 751 mmHg 77%
    01:00 +14°C° 0 mm 3 m/s 750 mmHg 79%
    02:00 +13°C° 0 mm 3 m/s 750 mmHg 81%
    03:00 +13°C° 0,1 mm 3 m/s 750 mmHg 83%
    04:00 +13°C° 0,1 mm 3 m/s 750 mmHg 85%
    05:00 +13°C° 0,1 mm 2 m/s 750 mmHg 87%
    06:00 +14°C° 0,1 mm 2 m/s 750 mmHg 84%
    07:00 +14°C° 0,1 mm 3 m/s 750 mmHg 81%
    08:00 +16°C° 0,1 mm 3 m/s 749 mmHg 78%
    09:00 +17°C° 0,1 mm 3 m/s 749 mmHg 75%
    10:00 +18°C° 0,1 mm 3 m/s 749 mmHg 71%
    11:00 +19°C° 0,1 mm 3 m/s 749 mmHg 68%
    12:00 +19°C° 0,6 mm 3 m/s 749 mmHg 67%
    13:00 +20°C° 0,6 mm 3 m/s 748 mmHg 65%
    14:00 +21°C° 0,6 mm 3 m/s 748 mmHg 64%
    15:00 +20°C° 0,7 mm 3 m/s 748 mmHg 66%
    16:00 +20°C° 0,7 mm 3 m/s 748 mmHg 67%
    17:00 +20°C° 0,7 mm 3 m/s 748 mmHg 69%
    18:00 +18°C° 0,5 mm 3 m/s 748 mmHg 74%
    19:00 +17°C° 0,5 mm 2 m/s 748 mmHg 80%
    20:00 +16°C° 0,5 mm 2 m/s 748 mmHg 86%
    21:00 +15°C° 0,3 mm 2 m/s 748 mmHg 87%
    22:00 +14°C° 0,3 mm 3 m/s 748 mmHg 89%
    23:00 +13°C° 0,3 mm 3 m/s 749 mmHg 90%

    27 Mai, Sâmbătă

    Timp Temperatura Precipitaţii Vânt Presiune Umiditate
    00:00 +13°C° 0,1 mm 3 m/s 748 mmHg 91%
    01:00 +12°C° 0,1 mm 3 m/s 748 mmHg 92%
    02:00 +12°C° 0,1 mm 3 m/s 748 mmHg 93%
    03:00 +12°C° 0,1 mm 3 m/s 748 mmHg 93%
    04:00 +12°C° 0,1 mm 3 m/s 748 mmHg 94%
    05:00 +12°C° 0,1 mm 3 m/s 748 mmHg 94%
    06:00 +13°C° 0,1 mm 3 m/s 749 mmHg 92%
    07:00 +13°C° 0,1 mm 3 m/s 749 mmHg 90%
    08:00 +15°C° 0,1 mm 2 m/s 749 mmHg 88%
    09:00 +16°C° 0,3 mm 2 m/s 749 mmHg 85%
    10:00 +17°C° 0,3 mm 2 m/s 749 mmHg 82%
    11:00 +17°C° 0,3 mm 2 m/s 750 mmHg 79%
    12:00 +18°C° 0,8 mm 2 m/s 750 mmHg 78%
    13:00 +18°C° 0,8 mm 3 m/s 749 mmHg 77%
    14:00 +18°C° 0,8 mm 3 m/s 749 mmHg 76%
    15:00 +18°C° 0,6 mm 3 m/s 749 mmHg 75%
    16:00 +19°C° 0,6 mm 3 m/s 749 mmHg 73%
    17:00 +19°C° 0,6 mm 3 m/s 750 mmHg 72%
    18:00 +17°C° 0,5 mm 3 m/s 750 mmHg 77%
    19:00 +16°C° 0,5 mm 3 m/s 750 mmHg 83%
    20:00 +15°C° 0,5 mm 2 m/s 750 mmHg 89%
    21:00 +14°C° 0,1 mm 2 m/s 751 mmHg 90%
    22:00 +14°C° 0,1 mm 2 m/s 751 mmHg 92%
    23:00 +13°C° 0,1 mm 2 m/s 751 mmHg 93%

    28 Mai, Duminică

    Timp Temperatura Precipitaţii Vânt Presiune Umiditate
    00:00 +13°C° 0 mm 2 m/s 751 mmHg 93%
    01:00 +13°C° 0 mm 2 m/s 751 mmHg 93%
    02:00 +12°C° 0 mm 2 m/s 751 mmHg 94%
    03:00 +13°C° 0 mm 1 m/s 752 mmHg 93%
    04:00 +13°C° 0 mm 1 m/s 752 mmHg 93%
    05:00 +13°C° 0 mm 1 m/s 752 mmHg 93%
    06:00 +14°C° 0,1 mm 2 m/s 753 mmHg 91%
    07:00 +15°C° 0,1 mm 2 m/s 753 mmHg 88%
    08:00 +16°C° 0,1 mm 2 m/s 753 mmHg 85%
    09:00 +17°C° 0,2 mm 2 m/s 753 mmHg 81%
    10:00 +18°C° 0,2 mm 2 m/s 754 mmHg 76%
    11:00 +19°C° 0,2 mm 2 m/s 754 mmHg 71%
    12:00 +20°C° 0,3 mm 3 m/s 754 mmHg 70%
    13:00 +20°C° 0,3 mm 3 m/s 754 mmHg 70%
    14:00 +21°C° 0,3 mm 4 m/s 754 mmHg 69%
    15:00 +20°C° 0,7 mm 4 m/s 754 mmHg 74%
    16:00 +19°C° 0,7 mm 3 m/s 754 mmHg 78%
    17:00 +18°C° 0,7 mm 3 m/s 754 mmHg 83%
    18:00 +18°C° 0,6 mm 3 m/s 755 mmHg 85%
    19:00 +17°C° 0,6 mm 3 m/s 755 mmHg 87%
    20:00 +16°C° 0,6 mm 2 m/s 756 mmHg 89%
    21:00 +16°C° 0,3 mm 3 m/s 756 mmHg 88%
    22:00 +16°C° 0,3 mm 3 m/s 756 mmHg 87%
    23:00 +15°C° 0,3 mm 4 m/s 757 mmHg 86%
    Arată mai mult